This is the latest recevied weather packets stored in our database for station/object DO1MIT-10. If no packets are shown the sender has not sent any weather packets the latest 10 day(s).
| Time | Temp. | Humidity | Pressure | Rain* | Wind** | Luminosity | Snow |
|---|---|---|---|---|---|---|---|
| 1777579466 | 7.22° C | 53% | 1031.9 hPa | - | - | - | - |
| 1777578566 | 7.78° C | 52% | 1031.8 hPa | - | - | - | - |
| 1777577665 | 8.33° C | 51% | 1031.7 hPa | - | - | - | - |
| 1777576765 | 8.33° C | 50% | 1031.8 hPa | - | - | - | - |
| 1777575865 | 8.89° C | 49% | 1031.6 hPa | - | - | - | - |
| 1777574965 | 9.44° C | 48% | 1031.7 hPa | - | - | - | - |
| 1777574065 | 10° C | 47% | 1031.6 hPa | - | - | - | - |
| 1777573165 | 11.11° C | 46% | 1031.5 hPa | - | - | - | - |
| 1777571365 | 12.22° C | 44% | 1031.6 hPa | - | - | - | - |
| 1777570465 | 12.22° C | 44% | 1031.6 hPa | - | - | - | - |
| 1777569565 | 12.78° C | 44% | 1031.7 hPa | - | - | - | - |
| 1777568665 | 13.33° C | 43% | 1031.7 hPa | - | - | - | - |
| 1777567765 | 13.89° C | 43% | 1031.7 hPa | - | - | - | - |
| 1777566864 | 13.89° C | 42% | 1031.8 hPa | - | - | - | - |
| 1777565964 | 14.44° C | 42% | 1031.9 hPa | - | - | - | - |
| 1777565064 | 14.44° C | 41% | 1031.8 hPa | - | - | - | - |
| 1777564164 | 15° C | 41% | 1031.9 hPa | - | - | - | - |
| 1777563264 | 15.56° C | 40% | 1032 hPa | - | - | - | - |
| 1777562364 | 17.22° C | 40% | 1032.1 hPa | - | - | - | - |
| 1777561464 | 18.89° C | 40% | 1032.2 hPa | - | - | - | - |
| 1777560564 | 19.44° C | 41% | 1032.4 hPa | - | - | - | - |
| 1777559663 | 18.33° C | 41% | 1032.4 hPa | - | - | - | - |
| 1777557863 | 18.33° C | 42% | 1032.5 hPa | - | - | - | - |
| 1777556963 | 17.22° C | 42% | 1032.7 hPa | - | - | - | - |
| 1777556063 | 17.22° C | 42% | 1032.8 hPa | - | - | - | - |
* Rain since midnight (hover to see other rain measurements)
** Current wind speed in m/s (hover to see current wind gust speed)